{"data":{"norad_id":67185,"intl_designator":"2025-303Y","name":"STARLINK-35859","alt_names":[],"object_type":"PAYLOAD","status":"ACTIVE","operator":null,"country":"US","launch_date":"2025-12-17","launch_site_code":"AFETR","launch_vehicle":null,"mission":null,"orbit_class":"UNKNOWN","rcs_meters":null,"size_class":null,"mass_kg":null,"dimensions":null,"purposes":["comms"],"wikipedia_slug":null,"has_3d_model":false,"image_url":null,"decayed_at":null,"tle_current":{"epoch":"2026-05-24T23:02:33.929088Z","epoch_age_seconds":75963,"freshness":"FRESH","line1":"1 67185U 25303Y   26144.96011492  .00010244  00000+0  38125-3 0  9991","line2":"2 67185  42.9973 239.6364 0001287 275.4508  84.6197 15.27581560 24400","mean_motion":15.2758156,"eccentricity":0.0001287,"inclination_deg":42.9973,"raan_deg":239.6364,"arg_perigee_deg":275.4508,"mean_anomaly_deg":84.6197,"bstar":0.00038125,"rev_number":2440,"period_min":94.266652446368,"perigee_km":482.16139079304,"apogee_km":483.9274588918,"semimajor_km":6861.1814248424,"source":"CELESTRAK","updated_at":"2026-05-25T13:38:21.484493Z"}}}